Station DISW3 - Devils Island, WI Image indicating link to RSS feed of recent meteorological observations for station DISW3


Conditions at DISW3 as of
(9:00 am CDT)
1400 GMT on 06/21/2024:
     

Click on the graph icon in the table below to see a time series plot of the last five days of that observation.

5-day plot - Wind Direction Wind Direction (WDIR): E ( 90 deg true )
5-day plot - Wind Speed Wind Speed (WSPD): 6 kts
5-day plot - Wind Gust Wind Gust (GST): 7 kts
5-day plot - Atmospheric Pressure Atmospheric Pressure (PRES):30.27 in
5-day plot - Pressure Tendency Pressure Tendency (PTDY):+0.00 in ( Steady )
5-day plot - Air Temperature Air Temperature (ATMP): 50.9 °F
5-day plot - Dew Point Dew Point (DEWP): 50.0 °F
5-day plot - Wind Chill Wind Chill (CHILL): 48.4 °F
5-day plot - Wind Speed at 10 Meters Wind Speed at 10 meters (WSPD10M): 6 kts
5-day plot - Wind Speed at 20 Meters Wind Speed at 20 meters (WSPD20M): 6 kts
5-day plot -  Wind Speed, Wind Gust and Atmospheric Pressure Combined plot of Wind Speed, Gust, and Air Pressure
Continuous Winds
TIME
(CDT)
5-day plot - Wind Direction WDIR 5-day plot - Wind Speed WSPD
9:00 amE ( 95 deg ) 6 kts
8:50 amE ( 94 deg ) 7 kts
8:40 amENE ( 74 deg ) 6 kts
8:30 amENE ( 74 deg ) 6 kts
8:20 amNE ( 51 deg ) 6 kts
8:10 amNE ( 55 deg ) 7 kts
 
Peak gust during the measurement hour
TIME
(CDT)
5-day plot - Gust Direction GDR 5-day plot - Gust Speed GST
8:46 amE ( 100 deg ) 8 kts
Previous observations
TIME
(CDT)
5-day plot - Wind Direction
WDIR
 
5-day plot - Wind Speed
WSPD
kts
5-day plot - Wind Gust
GST
kts
5-day plot - Wave Height
WVHT
ft
5-day plot - Dominant Wave Period
DPD
sec
5-day plot - Average Wave Period
APD
sec
5-day plot - Mean Wave Direction
MWD
 
5-day plot - Atmospheric Pressure
PRES
in
5-day plot - Pressure Tendency
PTDY
in
5-day plot - Air Temperature
ATMP
°F
5-day plot - Water Temperature
WTMP
°F
5-day plot - Dew Point
DEWP
°F
5-day plot - Salinity
SAL
psu
5-day plot - Visibility
VIS
nmi
5-day plot - Tide (above MLLW)
TIDE
ft
2024-06-21 08:00 am NE 7 7----30.28+0.00 50.2- 49.5---
2024-06-21 07:00 am E 6 6----30.28+0.00 50.2- 49.1---
2024-06-21 06:00 amENE 7 8----30.27-0.02 49.8- 48.2---
2024-06-21 05:00 am NE 5 6----30.29-0.01 49.6- 48.2---
2024-06-21 04:00 am NE 7 8----30.28-0.03 49.5- 47.7---
2024-06-21 03:00 amNNE 5 6----30.29-0.01 49.8- 48.4---
2024-06-21 02:00 amNNE 6 7----30.30-0.01 49.8- 48.2---
2024-06-21 01:00 am N 8 9----30.31-0.03 49.6- 48.7---
2024-06-21 12:00 amENE 4 4----30.30-0.03 51.1- 48.2---
2024-06-20 11:00 pm NE 5 6----30.31-0.02 51.3- 48.6---
2024-06-20 10:00 pm N 3 4----30.34+0.00 51.1- 48.9---
2024-06-20 09:00 pm E 5 7----30.34-0.02 51.6- 48.6---
2024-06-20 08:00 pm E 7 8----30.33-0.05 51.4- 48.9---
2024-06-20 07:00 pm E 7 8----30.34-0.06 51.8- 48.9---
2024-06-20 06:00 pm E 7 8----30.36-0.04 51.4- 48.0---
2024-06-20 05:00 pm E 6 7----30.38-0.03 51.3- 48.9---
2024-06-20 04:00 pmENE 4 5----30.40+0.00 50.9- 48.4---
2024-06-20 03:00 pmENE 6 7----30.40-0.02 50.4- 48.4---
2024-06-20 02:00 pmENE 7 8----30.41+0.00 50.5- 48.2---
2024-06-20 01:00 pmNNE 10 12----30.41+0.00 50.7- 48.2---
2024-06-20 12:00 pmNNE 10 11----30.42+0.00 51.3- 48.2---
2024-06-20 11:00 amENE 2 4----30.41-0.01 53.2- 49.1---
2024-06-20 10:00 amESE 7 7----30.40-0.02 54.7- 49.5---